Location: Unspecified
(37.6100°N, 2.7800°W)
Time: 05:18:38
(UTC+00:00)

OTV 5 (USA 277) - Visible Passes

Search period start: 27 May 2019 00:00
Search period end: 06 June 2019 00:00
Orbit: 310 x 325 km, 54.5° (Epoch: 08 May)

Date Brightness Start Highest point End Pass type
(mag) Time Alt. Az. Time Alt. Az. Time Alt. Az.
02 Jun ? 04:00:23 10° S 04:02:28 20° SE 04:04:34 10° ENE visible
03 Jun ? 04:14:20 10° SW 04:17:04 67° SE 04:19:48 10° NE visible
04 Jun ? 02:57:34 12° SE 02:57:46 12° SE 02:58:50 10° ESE visible
05 Jun ? 03:11:51 32° SSE 03:12:17 35° SE 03:14:51 10° ENE visible
